Location: *
(48.8667°N, 2.3331°E)
Time: 17:43:20
(UTC+00:00)

Daily predictions for brighter satellites

Satellite Brightness Start Highest point End
(mag) Time Altitude Azimuth Time Altitude Azimuth Time Altitude Azimuth
Meteor 1-5 Rocket 4.3 20:01:08 10° N 20:06:26 59° ENE 20:11:39 10° SSE
SJ-6B 4.2 20:04:55 10° SSW 20:08:39 40° W 20:12:30 10° NNW
BREEZE M DEB (TANK) 4.3 20:04:53 10° W 20:08:56 87° N 20:23:23 10° E
ERS-2 3.6 20:06:02 10° N 20:09:29 42° WNW 20:12:55 10° SW
Terra 3.6 20:13:15 10° E 20:16:28 18° ENE 20:19:40 10° NNE
MetOp-B 4.3 20:12:16 10° SSE 20:17:31 60° ENE 20:22:48 10° N
Meteor 1-11 Rocket 4.4 20:12:06 10° N 20:17:48 44° ENE 20:23:23 10° SE
Cosmos 1515 Rocket 3.6 20:16:11 10° S 20:20:30 60° E 20:24:50 10° NNE
Cosmos 1633 Rocket 4.0 20:17:54 10° NNW 20:22:11 49° W 20:26:26 10° SSW
Cosmos 2228 Rocket 4.1 20:19:31 10° SSE 20:23:22 29° E 20:27:16 10° NNE
Tianhe-1 2.9 20:21:37 10° SSW 20:23:36 16° SSE 20:25:05 12° SE
Cosmos 2315 Rocket 4.2 20:17:48 10° SSW 20:24:12 81° W 20:30:37 10° N
Cosmos 1869 Rocket 4.5 20:21:30 10° N 20:25:25 32° ENE 20:29:01 12° SE
Resurs 01 Rocket 1.7 20:22:39 10° SSE 20:27:05 83° WSW 20:31:34 10° NNW
BREEZE M DEB (TANK) 1.9 20:24:00 10° WNW 20:29:10 80° SSW 20:31:13 12° ESE
SWARM C 4.5 20:26:21 10° N 20:29:40 70° E 20:32:58 10° S
SWARM A 4.2 20:26:27 10° N 20:29:47 73° E 20:33:05 10° S
Cosmos 2082 Rocket 2.2 20:24:30 10° NNW 20:30:10 87° ENE 20:35:40 11° SSE
Cosmos 1328 Rocket 4.1 20:27:11 10° SSW 20:31:32 62° WNW 20:35:55 10° N
USA 305 4.2 20:29:15 10° WNW 20:33:00 31° SW 20:36:40 10° SSE
SPOT 1/Viking Rocket 3.7 20:27:57 10° SSE 20:33:05 65° ENE 20:38:13 10° N
ERS-1 Rocket 3.9 20:29:27 11° SE 20:33:44 35° ENE 20:38:16 10° N
Cosmos 1943 Rocket 3.3 20:35:05 10° SSE 20:39:20 24° ESE 20:43:42 10° NE
Cosmos 1470 Rocket 4.2 20:35:13 10° NNW 20:39:38 57° W 20:44:01 10° S
Spot 2 Rocket 3.7 20:35:19 12° SE 20:39:54 56° ENE 20:44:50 10° N
EP 1 4.3 20:37:51 10° SW 20:40:57 86° SE 20:43:36 10° NE
OBJECT-B 3.7 20:40:06 10° WSW 20:41:47 13° W 20:43:28 10° WNW
ERBS 2.9 20:38:54 10° NW 20:42:07 48° NNE 20:44:57 13° ESE
Meteor 1-10 Rocket 4.2 20:37:27 10° S 20:43:00 68° E 20:48:42 10° NNE
Cosmos 1536 3.4 20:41:59 10° N 20:45:52 43° ENE 20:48:44 16° SE
CARTOSAT-1 3.9 20:42:25 14° SE 20:45:55 51° ENE 20:50:07 10° N
Landsat 7 4.1 20:41:21 10° S 20:46:06 71° WSW 20:50:52 10° NNW
SPOT 5 3.7 20:42:26 14° SE 20:46:41 44° ENE 20:51:45 10° N
CZ-2C R/B 3.7 20:42:39 10° NNE 20:47:11 70° ESE 20:51:45 10° S
SPOT 3 Rocket 4.0 20:44:25 10° S 20:49:30 61° WSW 20:54:38 10° NNW
Cosmos 1271 Rocket 2.7 20:45:53 10° S 20:49:53 80° E 20:53:54 10° NNE
COSMOS 2406 4.4 20:46:43 10° NW 20:51:52 37° WSW 20:57:00 10° S
Cosmos 1680 Rocket 3.6 20:47:56 10° NNW 20:53:18 72° ENE 20:57:31 16° SSE
Cosmos 1933 Rocket 4.0 20:49:05 10° NNW 20:53:23 61° W 20:57:40 10° S
ISS -3.6 20:51:23 10° SW 20:54:38 49° SSE 20:57:55 10° ENE
Cosmos 2278 Rocket 2.8 20:50:20 10° SW 20:55:55 60° WNW 21:01:33 10° NNE
Cosmos 2084 Rocket 3.5 20:53:26 10° NW 20:57:42 74° NE 21:00:52 19° SE
SJ 16-02 1.9 20:54:06 10° SSW 20:58:29 61° WNW 21:02:54 10° NNE
Cosmos 1544 3.6 20:55:47 10° N 20:59:14 42° ENE 21:01:17 21° SE
Cosmos 2369 Rocket 3.6 20:58:46 16° SE 21:00:47 19° E 21:04:39 10° ENE
Cosmos 1666 3.7 21:02:20 10° NNW 21:05:53 42° W 21:09:24 10° SSW
JB-3 4.3 21:05:24 10° NNE 21:09:14 61° ESE 21:12:01 17° S
Cosmos 1733 Rocket 4.1 21:06:17 10° N 21:10:10 32° ENE 21:12:25 20° ESE
ARIANE 5 R/B 2.6 21:10:14 18° S 21:13:28 81° WSW 21:17:50 10° NNW
RESURS DK-1 4.2 21:11:31 10° N 21:14:50 22° NE 21:17:43 12° E
BREEZE-M DEB (TANK) 1.1 21:16:25 10° W 21:18:24 58° SSW 21:18:57 40° SE
Iridium 4 Rocket 4.1 21:13:15 10° S 21:19:07 71° W 21:25:01 10° N
USA 245 3.5 21:18:30 20° SSW 21:19:34 31° W 21:21:47 10° NNW
Cosmos 990 Rocket 4.0 21:19:17 10° SSW 21:24:31 88° ESE 21:29:50 10° NNE
Cosmos 1898 Rocket 3.5 21:22:14 10° SSW 21:27:32 77° ESE 21:32:53 10° NNE
ATLAS 2AS CENTAUR R/B 3.0 21:22:36 10° NW 21:29:50 61° WSW 21:34:30 21° SSE
USA 215 4.4 21:23:59 10° ENE 21:30:05 44° N 21:36:12 10° WNW
Meteor 1-27 Rocket 3.9 21:25:09 10° SSW 21:31:01 82° WNW 21:37:01 10° N
SL-24 R/B - RUBIN 2 4.3 21:25:57 10° NW 21:31:15 54° WSW 21:34:02 24° S
Cosmos 44 4.0 21:27:35 10° NW 21:32:51 53° WSW 21:35:56 23° S
Cosmos 1818 3.6 21:30:07 10° NW 21:35:36 75° SW 21:38:46 26° SSE
Cosmos 2154 Rocket 4.3 21:29:41 10° NNW 21:35:58 67° W 21:40:59 16° S
Cosmos 1743 2.6 21:33:28 10° N 21:37:22 87° E 21:39:06 32° S
Cosmos 962 Rocket 4.4 21:34:41 10° N 21:40:51 83° E 21:44:46 24° SSE
Nadezhda 1 Rocket 4.2 21:35:53 10° SSW 21:42:08 71° W 21:48:21 10° N
Meteor 1-19 Rocket 4.5 21:43:17 27° SSE 21:45:52 48° E 21:51:04 10° NNE
BREEZE-M R/B 1.7 21:45:02 10° W 21:47:26 88° N 21:47:59 52° E
H-2A R/B 3.4 21:46:15 10° NNE 21:50:27 75° ESE 21:52:23 31° S
Terra 1.9 21:51:09 27° S 21:53:42 71° WSW 21:58:28 10° NNW
Gbstr 26 Del rocket 4.3 21:47:21 10° WNW 21:54:49 60° SW 21:58:21 28° SE
Cosmos 1461 3.0 21:50:34 10° SSW 21:55:17 80° SE 21:59:55 10° NE
Okean 1-7 4.4 21:56:31 21° E 21:57:09 22° E 22:00:28 10° NE
Cosmos 1340 Rocket 3.8 21:54:28 10° NNW 21:58:20 42° W 22:00:21 24° SSW
Cosmos 1862 Rocket 3.5 21:57:49 37° SSE 21:59:24 64° E 22:03:41 10° NNE
Cosmos 2297 4.0 21:55:03 10° SW 22:00:43 70° WNW 22:06:25 10° NNE
Okean 1 3.2 22:00:54 38° S 22:02:21 82° E 22:06:21 10° NNE
ATLAS CENTAUR R/B 2.3 22:10:15 27° E 22:10:15 27° E 22:12:40 10° ENE
Cosmos 1607 4.2 22:06:38 26° S 22:10:01 50° ESE 22:16:15 10° NE
ERS-1 Rocket 4.1 22:09:26 19° SSW 22:12:29 36° W 22:17:08 10° NNW
Cosmos 2082 Rocket 4.3 22:10:05 10° WNW 22:13:28 16° W 22:16:52 10° SW
Cosmos 1515 4.1 22:13:57 32° SW 22:15:30 58° WNW 22:19:16 10° N
Cosmos 2366 rocket 3.9 22:09:36 10° N 22:15:50 85° E 22:18:59 32° SSE
ERBS 3.7 22:15:15 10° WNW 22:17:42 26° WSW 22:17:42 26° WSW
Cosmos 2181 Rocket 3.9 22:16:13 28° S 22:19:42 87° E 22:25:52 10° N
Cosmos 1937 Rocket 4.1 22:17:04 10° SW 22:22:06 54° WNW 22:27:13 10° NNE
Cosmos 1943 Rocket 2.6 22:17:03 10° SW 22:22:38 63° WNW 22:28:12 10° NNE
SPOT 5 4.5 22:21:39 17° SW 22:24:53 31° W 22:29:35 10° NNW
Cosmos 1867 3.5 22:28:39 29° SSW 22:31:26 70° SE 22:36:55 10° NE
ISS -3.2 22:28:07 10° W 22:31:28 57° N 22:34:49 10° ENE
Cosmos 1656 Rocket 3.7 22:30:07 38° S 22:32:03 59° ESE 22:37:30 10° NE
Spot 4 4.0 22:30:35 39° SE 22:32:15 65° ENE 22:37:04 10° N
Cosmos 1238 Rocket 4.2 22:29:57 10° NNW 22:35:32 48° W 22:37:52 28° SSW
Cosmos 1975 3.2 22:36:25 10° NNW 22:40:20 55° W 22:41:09 45° SW
Cosmos 1048 Rocket 3.9 22:35:41 10° NNW 22:41:01 85° WSW 22:42:47 43° SSE
Cosmos 2369 Rocket 2.3 22:40:29 23° SW 22:44:09 77° WNW 22:49:51 10° NNE
Cosmos 2098 4.2 22:42:05 10° N 22:44:52 77° N 22:44:52 77° N
Cosmos 2218 Rocket 4.4 22:39:18 10° NNW 22:45:30 59° W 22:48:39 30° SSW
Cosmos 2344 4.3 22:37:50 10° NW 22:46:51 81° NE 22:56:38 19° SE
ALOS 2 3.0 22:47:43 41° ESE 22:48:49 52° ENE 22:53:05 10° N
BREEZE-M DEB (TANK) 4.4 22:33:32 10° WNW 22:50:23 69° SSW 22:52:48 35° SE
Okean 3 4.0 22:51:44 41° ESE 22:52:06 42° E 22:56:06 10° NNE
RESURS DK-1 2.6 22:49:05 10° NW 22:53:09 52° WSW 22:53:36 50° SW
SL-27 R/B 2.3 22:49:51 10° NNW 22:53:01 77° WNW 22:53:01 77° WNW
Lacrosse 5 2.7 22:54:17 32° ESE 22:54:17 32° ESE 22:58:12 10° ENE
Cosmos 1356 Rocket 3.6 22:52:40 10° N 22:56:57 63° ENE 22:57:43 52° SE
NOSS 2-1 (E) 4.4 22:52:22 10° NW 22:57:08 68° NE 23:00:42 27° ESE
Cosmos 1300 Rocket 4.3 22:57:50 10° N 23:02:01 41° ENE 23:02:56 36° ESE
Nadezhda 3 Rocket 4.0 22:59:44 39° SSE 23:02:06 70° E 23:08:16 10° NNE
Cosmos 1908 Rocket 4.3 23:03:46 10° NNW 23:08:03 45° W 23:09:03 38° SW
Meteor 1-12 Rocket 4.2 23:04:27 10° NNW 23:10:20 89° E 23:12:18 44° S
Cosmos 2298 Rocket 4.1 23:09:55 35° SW 23:12:09 74° WNW 23:17:28 10° NNE
USA 215 3.9 23:06:09 10° E 23:12:29 55° NNE 23:18:50 10° WNW
Thor Agena Rocket 4.3 23:09:38 10° NNE 23:14:34 39° E 23:15:40 35° SE
Sich 1 Rocket 3.8 23:11:15 10° N 23:15:47 64° ENE 23:16:39 52° SE
COSMOS 2455 3.7 23:11:35 10° NNW 23:17:24 46° NE 23:21:46 17° ESE
Cosmos 1805 3.5 23:14:19 10° N 23:18:10 56° ENE 23:18:27 55° E
Cosmos 494 Rocket 4.2 23:14:18 10° NNW 23:19:21 55° WSW 23:20:30 45° SSW
Cosmos 1378 3.0 23:22:00 80° W 23:22:03 81° W 23:25:47 10° N
Cosmos 2242 Rocket 4.2 23:21:30 37° WSW 23:22:46 48° WNW 23:27:09 10° N
Cosmos 1066 Rocket 4.2 23:22:33 45° S 23:24:18 73° E 23:29:53 10° NNE
Okean 2 Rocket 3.3 23:23:01 10° N 23:27:23 58° ENE 23:28:09 50° ESE
COBE Rocket 3.9 23:26:12 50° S 23:27:34 84° WSW 23:32:46 10° NNW
Meteor 1-15 Rocket 4.3 23:22:17 10° N 23:28:03 79° ENE 23:30:02 43° SSE
Cosmos 2151 Rocket 4.2 23:25:00 10° N 23:29:23 49° ENE 23:30:21 41° ESE
Cosmos 2227 Rocket 3.8 23:27:39 10° NNW 23:32:37 30° NE 23:37:33 10° ESE
Cosmos 44 Rocket 3.6 23:29:05 10° NW 23:34:10 52° WSW 23:34:54 48° SSW
Okean 1-7 4.0 23:33:21 32° WSW 23:34:28 39° WNW 23:38:32 10° N
Cosmos 2297 Rocket 3.4 23:29:41 10° NNW 23:34:57 38° NE 23:39:09 15° ESE
SAR-Lupe-2 3.5 23:32:04 10° NNE 23:35:36 82° NW 23:35:36 82° NW
Cosmos 1766 3.4 23:32:46 10° N 23:36:43 62° ENE 23:36:58 60° ESE
Cosmos 1782 Rocket 4.4 23:36:27 10° NNW 23:40:33 37° W 23:41:12 35° WSW
NOSS 2-1 (C) 4.3 23:38:36 10° NW 23:43:26 62° SW 23:45:14 44° S
COSMOS 2487 2.8 23:43:20 10° NNW 23:46:11 57° NW 23:46:11 57° NW
Cosmos 1125 Rocket 4.1 23:44:32 30° WSW 23:46:51 52° WNW 23:51:58 10° NNE
ATLAS CENTAUR R/B 2.7 23:46:20 21° W 23:48:08 33° NW 23:51:40 10° NNE
NOSS 2-1 (D) 4.4 23:45:31 10° NW 23:50:21 56° SW 23:51:55 44° S
Cosmos 1934 Rocket 3.9 23:45:16 10° NNW 23:51:23 74° W 23:53:27 43° SSW
BREEZE-M DEB (TANK) 4.2 23:50:23 10° WNW 23:51:45 21° WNW 23:51:45 21° WNW
Cosmos 1378 Rocket 4.2 23:53:20 39° ESE 23:53:51 41° E 23:57:55 10° NNE
Cosmos 1470 3.8 23:52:37 10° N 23:56:18 37° ENE 23:57:01 34° E
